Flag for India

Past Weather in 13°02'31.3"N, 80°10'39.3"E, India — Yesterday and Last 2 Weeks

Currently: 97 °F. Scattered clouds. (Weather station: Madras / Minambakkam, India). See more current weather

Past Weather in 13°02'31.3"N, 80°10'39.3"E — Graph

°F

13°02'31.3"N, 80°10'39.3"E Temperature Yesterday

Maximum temperature yesterday: 97 °F (at 4:00 pm)
Minimum temperature yesterday: 81 °F (at 12:00 am)
Average temperature yesterday: 86 °F

High & Low Weather Summary for the Past Weeks

 TemperatureHumidityPressure
High97 °F (Jul 20, 3:30 pm)94% (Jul 11, 7:30 pm)29.77 "Hg (Jul 11, 7:30 pm)
Low77 °F (Jul 9, 10:30 pm)47% (Jul 24, 1:00 pm)29.50 "Hg (Jul 10, 4:30 pm)
Average86 °F72%29.64 "Hg
* Reported Jul 9 4:30 pm — Jul 24 4:30 pm, 13°02'31.3"N, 80°10'39.3"E. Weather by CustomWeather, © 2021

Note: Actual official high and low records may vary slightly from our data, if they occured in-between our weather recording intervals... More about our weather records

13°02'31.3"N, 80°10'39.3"E Weather History for the Previous 24 Hours

Scroll right to see more
 ConditionsComfort  
Time TempWeatherWind HumidityBarometerVisibility
4:30 pm
Sat, Jul 24
97 °FScattered clouds.8 mph50%29.56 "Hg4 mi
4:00 pm97 °FScattered clouds.8 mph50%29.56 "Hg4 mi
3:30 pm97 °FScattered clouds.9 mph50%29.56 "Hg5 mi
3:00 pm97 °FScattered clouds.9 mph50%29.59 "Hg5 mi
2:30 pm97 °FScattered clouds.13 mph47%29.59 "Hg5 mi
2:00 pm97 °FScattered clouds.12 mph50%29.59 "Hg5 mi
1:30 pm95 °FPassing clouds.13 mph53%29.59 "Hg5 mi
1:00 pm97 °FPassing clouds.12 mph47%29.62 "Hg5 mi
12:30 pm95 °FPassing clouds.14 mph50%29.62 "Hg5 mi
12:00 pm95 °FPassing clouds.16 mph50%29.65 "Hg5 mi
11:00 am93 °FPassing clouds.14 mph53%29.68 "Hg5 mi
10:30 am93 °FPassing clouds.15 mph53%29.68 "Hg5 mi
10:00 am91 °FPassing clouds.16 mph56%29.68 "Hg5 mi
9:30 am90 °FPassing clouds.12 mph59%29.68 "Hg4 mi
9:00 am88 °FPassing clouds.9 mph66%29.68 "Hg4 mi
8:30 am86 °FScattered clouds.10 mph70%29.68 "Hg4 mi
8:00 am86 °FScattered clouds.9 mph70%29.68 "Hg4 mi
7:30 am86 °FScattered clouds.7 mph70%29.65 "Hg4 mi
7:00 am82 °FScattered clouds.6 mph79%29.65 "Hg4 mi
6:30 am82 °FScattered clouds.7 mph74%29.62 "Hg4 mi
6:00 am82 °FPassing clouds.5 mph74%29.62 "Hg4 mi
5:30 am82 °FPartly cloudy.5 mph74%29.62 "Hg4 mi
5:00 am82 °FPartly cloudy.3 mph74%29.62 "Hg4 mi
4:30 am84 °FPartly cloudy.5 mph70%29.59 "Hg4 mi
4:00 am84 °FPartly cloudy.6 mph66%29.59 "Hg4 mi
3:30 am84 °FPassing clouds.8 mph66%29.59 "Hg4 mi
3:00 am84 °FPassing clouds.6 mph66%29.59 "Hg4 mi
2:30 am84 °FPassing clouds.10 mph66%29.59 "Hg4 mi
2:00 am84 °FPassing clouds.10 mph66%29.59 "Hg4 mi
1:30 am82 °FPassing clouds.8 mph74%29.59 "Hg4 mi
1:00 am84 °FPassing clouds.9 mph70%29.59 "Hg4 mi
12:30 am84 °FPassing clouds.12 mph66%29.62 "Hg4 mi
12:00 am84 °FPassing clouds.12 mph70%29.65 "Hg4 mi
11:30 pm
Fri, Jul 23
84 °FPassing clouds.13 mph70%29.65 "Hg4 mi
11:00 pm84 °FPassing clouds.13 mph70%29.65 "Hg4 mi
10:30 pm84 °FPassing clouds.13 mph70%29.65 "Hg4 mi
10:00 pm86 °FPassing clouds.9 mph66%29.62 "Hg4 mi
9:30 pm86 °FPassing clouds.9 mph66%29.59 "Hg4 mi
9:00 pm86 °FPassing clouds.9 mph66%29.59 "Hg4 mi
8:30 pm88 °FPassing clouds.9 mph62%29.59 "Hg4 mi
8:00 pm88 °FPassing clouds.8 mph62%29.59 "Hg4 mi
7:30 pm88 °FPassing clouds.8 mph62%29.56 "Hg4 mi
7:00 pm88 °FScattered clouds.10 mph62%29.56 "Hg4 mi
6:30 pm90 °FScattered clouds.10 mph59%29.53 "Hg4 mi
6:00 pm90 °FScattered clouds.8 mph63%29.53 "Hg4 mi
5:30 pm90 °FFog.7 mph63%29.53 "Hg3 mi
5:00 pm88 °FLight rain. Scattered clouds.6 mph75%29.50 "Hg2 mi
Weather by CustomWeather, © 2021

See weather overview